Zurück zum Katalog

STARLINK-3511

AktivKommunikationVLEO
NORAD 51752·PAYLOAD·🇺🇸 United States

Gestartet Feb 21, 2022 von Cape Canaveral Space Force Station

Loading…

Nächste Überflüge (nächste 24 Stunden)

TLE

AktuellSource: CelesTrak SupGP

Epoche: Sep 15, 2026, 02:35 UTC

1 51752C 22016AQ  26258.10812500  .00006270  00000+0  20164-3 0  2589
2 51752  53.1578 163.8559 0001412  85.8601 229.4317 15.31696783    12

Verfolge STARLINK-3511 in Echtzeit mit AllMySat

Download on the App Store